TimeEDT,TemperatureF,Dew PointF,Humidity,Sea Level PressureIn,VisibilityMPH,Wind Direction,Wind SpeedMPH,Gust SpeedMPH,PrecipitationIn,Events,Conditions,WindDirDegrees,DateUTC
12:53 AM,68.0,61.0,78,30.18,10.0,Calm,Calm,-,N/A,,Scattered Clouds,0,2013-06-21 04:53:00
1:53 AM,64.9,62.1,90,30.18,10.0,Calm,Calm,-,N/A,,Scattered Clouds,0,2013-06-21 05:53:00
2:53 AM,66.9,62.1,84,30.17,10.0,SW,3.5,-,N/A,,Scattered Clouds,230,2013-06-21 06:53:00
3:53 AM,64.0,61.0,90,30.17,8.0,North,3.5,-,N/A,,Scattered Clouds,360,2013-06-21 07:53:00
4:53 AM,63.0,61.0,93,30.18,7.0,Calm,Calm,-,N/A,,Mostly Cloudy,0,2013-06-21 08:53:00
5:53 AM,63.0,61.0,93,30.20,6.0,Calm,Calm,-,N/A,,Mostly Cloudy,0,2013-06-21 09:53:00
6:53 AM,64.0,61.0,90,30.20,5.0,Calm,Calm,-,N/A,,Mostly Cloudy,0,2013-06-21 10:53:00
7:53 AM,66.9,63.0,87,30.22,10.0,Calm,Calm,-,N/A,,Mostly Cloudy,0,2013-06-21 11:53:00
8:53 AM,68.0,63.0,84,30.22,10.0,Calm,Calm,-,N/A,,Scattered Clouds,0,2013-06-21 12:53:00
9:53 AM,73.0,63.0,71,30.22,10.0,Calm,Calm,-,N/A,,Scattered Clouds,0,2013-06-21 13:53:00
10:53 AM,77.0,64.0,64,30.22,10.0,South,3.5,-,N/A,,Scattered Clouds,170,2013-06-21 14:53:00
11:53 AM,78.1,62.1,58,30.22,10.0,Calm,Calm,-,N/A,,Scattered Clouds,0,2013-06-21 15:53:00
12:53 PM,81.0,63.0,54,30.21,10.0,Variable,4.6,-,N/A,,Scattered Clouds,0,2013-06-21 16:53:00
1:53 PM,82.9,63.0,51,30.20,10.0,NW,5.8,-,N/A,,Scattered Clouds,320,2013-06-21 17:53:00
2:53 PM,84.0,63.0,49,30.17,10.0,NNE,3.5,-,N/A,,Scattered Clouds,20,2013-06-21 18:53:00
3:53 PM,84.9,64.0,49,30.16,10.0,SSE,5.8,-,N/A,,Mostly Cloudy,160,2013-06-21 19:53:00
4:53 PM,84.0,61.0,46,30.15,10.0,Calm,Calm,-,N/A,,Scattered Clouds,0,2013-06-21 20:53:00
5:53 PM,84.0,62.1,47,30.13,10.0,SSE,3.5,-,N/A,,Scattered Clouds,150,2013-06-21 21:53:00
6:53 PM,84.0,60.1,44,30.12,10.0,SE,3.5,-,N/A,,Scattered Clouds,130,2013-06-21 22:53:00
7:53 PM,82.9,61.0,47,30.12,10.0,Calm,Calm,-,N/A,,Scattered Clouds,0,2013-06-21 23:53:00
8:39 PM,78.1,64.0,62,30.20,10.0,Calm,Calm,-,N/A,Thunderstorm,Thunderstorm,0,2013-06-22 00:39:00
8:53 PM,77.0,64.0,64,30.14,10.0,South,12.7,-,N/A,Thunderstorm,Thunderstorm,190,2013-06-22 00:53:00
9:53 PM,70.0,61.0,73,30.16,10.0,Calm,Calm,-,N/A,Thunderstorm,Thunderstorm,0,2013-06-22 01:53:00
10:30 PM,70.0,61.0,73,30.25,10.0,Calm,Calm,-,N/A,,Scattered Clouds,0,2013-06-22 02:30:00
10:53 PM,71.1,60.1,68,30.19,10.0,Calm,Calm,-,N/A,,Scattered Clouds,0,2013-06-22 02:53:00
11:53 PM,68.0,60.1,76,30.19,10.0,Calm,Calm,-,N/A,,Scattered Clouds,0,2013-06-22 03:53:00